AEHF-4 (USA 288)

Last updated on Mon Sep 15 2025 00:02:49 GMT+0000 (Coordinated Universal Time)

1 43651U 18079A 25257.22200868 -.00000285 00000+0 00000+0 0 9997 2 43651 1.5131 340.3507 0056484 10.4926 14.9516 1.00270627 25539
UTC large
Height (km)
Speed (km/s)
/
Latitude / Longitude
Inclination (degrees)
Orbital Period (minutes)
Azimuth
Elevation
Range (km)
Doppler Factor

Next 0 passes for location: London (51.5072 / 0.1276)

Sorry there are no passes over London.